Time,TemperatureF,DewpointF,PressureIn,WindDirection,WindDirectionDegrees,WindSpeedMPH,WindSpeedGustMPH,Humidity,HourlyPrecipIn,Conditions,Clouds,dailyrainin,SoftwareType,DateUTC
2016-12-04 00:10:00,46.6,42.0,30.23,East,98,0.0,2.0,84,0.00,,,0.00,Wunderground v.1.15,2016-12-04 08:10:00,
2016-12-04 00:15:00,46.6,41.7,30.22,East,86,0.0,2.0,83,0.00,,,0.00,Wunderground v.1.15,2016-12-04 08:15:00,
2016-12-04 00:25:00,45.9,41.3,30.23,ESE,104,0.0,2.0,84,0.00,,,0.00,Wunderground v.1.15,2016-12-04 08:25:00,
2016-12-04 00:35:00,45.6,41.0,30.22,ESE,110,0.0,2.0,84,0.00,,,0.00,Wunderground v.1.15,2016-12-04 08:35:00,
2016-12-04 00:45:00,45.7,41.1,30.22,East,95,1.0,2.0,84,0.00,,,0.00,Wunderground v.1.15,2016-12-04 08:45:00,
2016-12-04 00:50:00,45.7,40.8,30.22,ESE,108,1.0,2.0,83,0.00,,,0.00,Wunderground v.1.15,2016-12-04 08:50:00,
2016-12-04 00:55:00,45.7,40.8,30.22,ENE,73,1.0,2.0,83,0.00,,,0.00,Wunderground v.1.15,2016-12-04 08:55:00,
2016-12-04 01:05:00,45.4,40.5,30.22,East,93,1.0,1.0,83,0.00,,,0.00,Wunderground v.1.15,2016-12-04 09:05:00,
2016-12-04 01:20:00,45.5,40.6,30.23,ESE,117,1.0,1.0,83,0.00,,,0.00,Wunderground v.1.15,2016-12-04 09:20:00,
2016-12-04 01:30:00,45.6,41.0,30.23,ENE,78,1.0,2.0,84,0.00,,,0.00,Wunderground v.1.15,2016-12-04 09:30:00,
2016-12-04 01:40:00,45.2,40.7,30.22,East,93,1.0,2.0,84,0.00,,,0.00,Wunderground v.1.15,2016-12-04 09:40:00,
2016-12-04 01:50:00,44.7,40.5,30.21,East,95,2.0,2.0,85,0.00,,,0.00,Wunderground v.1.15,2016-12-04 09:50:00,
2016-12-04 01:55:00,44.9,40.7,30.21,ENE,75,2.0,2.0,85,0.00,,,0.00,Wunderground v.1.15,2016-12-04 09:55:00,
2016-12-04 02:05:00,44.9,40.4,30.22,East,91,1.0,2.0,84,0.00,,,0.00,Wunderground v.1.15,2016-12-04 10:05:00,
2016-12-04 02:15:00,44.8,40.6,30.22,ENE,60,1.0,2.0,85,0.00,,,0.00,Wunderground v.1.15,2016-12-04 10:15:00,
2016-12-04 02:25:00,44.9,40.4,30.21,East,93,1.0,1.0,84,0.00,,,0.00,Wunderground v.1.15,2016-12-04 10:25:00,
2016-12-04 02:35:00,44.5,40.0,30.21,East,92,2.0,3.0,84,0.00,,,0.00,Wunderground v.1.15,2016-12-04 10:35:00,
2016-12-04 02:40:00,44.5,40.0,30.21,ENE,74,3.0,3.0,84,0.00,,,0.00,Wunderground v.1.15,2016-12-04 10:40:00,
2016-12-04 02:50:00,44.5,40.0,30.21,ENE,73,2.0,2.0,84,0.00,,,0.00,Wunderground v.1.15,2016-12-04 10:50:00,
2016-12-04 02:55:00,44.7,39.9,30.21,ENE,63,3.0,3.0,83,0.00,,,0.00,Wunderground v.1.15,2016-12-04 10:55:00,
2016-12-04 03:05:00,44.7,39.9,30.21,ENE,70,3.0,3.0,83,0.00,,,0.00,Wunderground v.1.15,2016-12-04 11:05:00,
2016-12-04 03:10:00,44.6,40.1,30.21,ENE,64,2.0,2.0,84,0.00,,,0.00,Wunderground v.1.15,2016-12-04 11:10:00,
2016-12-04 03:20:00,44.5,40.0,30.21,ENE,58,3.0,3.0,84,0.00,,,0.00,Wunderground v.1.15,2016-12-04 11:20:00,
2016-12-04 03:25:00,44.5,40.0,30.21,ENE,77,3.0,3.0,84,0.00,,,0.00,Wunderground v.1.15,2016-12-04 11:25:00,
2016-12-04 03:35:00,44.3,39.8,30.21,NE,49,3.0,4.0,84,0.00,,,0.00,Wunderground v.1.15,2016-12-04 11:35:00,
2016-12-04 03:45:00,44.5,40.0,30.21,ENE,73,3.0,4.0,84,0.00,,,0.00,Wunderground v.1.15,2016-12-04 11:45:00,
2016-12-04 03:50:00,44.4,39.6,30.21,East,84,3.0,3.0,83,0.00,,,0.00,Wunderground v.1.15,2016-12-04 11:50:00,
2016-12-04 03:55:00,44.3,39.8,30.21,ENE,72,3.0,3.0,84,0.00,,,0.00,Wunderground v.1.15,2016-12-04 11:55:00,